Saginaw, Michigan, United States (48601)
Lat: 43.42N, Lon: 83.95W
Wx Zone: MIZ053
Local Info
Past Weather Observations for Today

NOTE: This archive is for the closest National Weather Service station to Saginaw. Information may differ from the station used for current weather conditions.

Click here for Long-term Archive

Time Weather Temperature Dewpoint Humidity Pressure Winds Precip Visibility
17:55
Overcast
32°F / 0°C 27°F / -3°C 80% 30.21 in
(1023 mb)
SE 5.8 mph
(SE 9 kph)
- 10SM
17:35
Overcast
32°F / 0°C 27°F / -3°C 80% 30.21 in
(1023 mb)
SE 5.8 mph
(SE 9 kph)
- 10SM
17:15
Overcast
32°F / 0°C 27°F / -3°C 80% 30.21 in
(1023 mb)
SE 6.9 mph
(SE 11 kph)
- 10SM
16:55
Overcast
32°F / 0°C 28°F / -2°C 87% 30.21 in
(1023 mb)
SE 6.9 mph
(SE 11 kph)
- 10SM
16:35
Overcast
32°F / 0°C 28°F / -2°C 87% 30.21 in
(1023 mb)
SSE 5.8 mph
(SSE 9 kph)
- 7SM
16:15
Overcast
34°F / 1°C 28°F / -2°C 81% 30.21 in
(1023 mb)
SSE 5.8 mph
(SSE 9 kph)
- 10SM
15:54
Overcast
34°F / 1°C 28°F / -2°C 81% 30.21 in
(1023 mb)
SSE 6.9 mph
(SSE 11 kph)
- 10SM
15:35
Overcast
34°F / 1°C 28°F / -2°C 81% 30.21 in
(1023 mb)
SSE 6.9 mph
(SSE 11 kph)
- 7SM
15:15
Overcast
34°F / 1°C 28°F / -2°C 81% 30.21 in
(1023 mb)
SSE 6.9 mph
(SSE 11 kph)
- 7SM
14:55
Overcast
34°F / 1°C 28°F / -2°C 81% 30.21 in
(1023 mb)
SSE 8.1 mph
(SSE 13 kph)
- 7SM
14:35
Overcast
34°F / 1°C 28°F / -2°C 81% 30.21 in
(1023 mb)
SSE 8.1 mph
(SSE 13 kph)
- 7SM
14:15
Overcast
34°F / 1°C 28°F / -2°C 81% 30.21 in
(1023 mb)
SSE 8.1 mph
(SSE 13 kph)
- 7SM
13:55
Overcast
34°F / 1°C 28°F / -2°C 81% 30.21 in
(1023 mb)
SSE 8.1 mph
(SSE 13 kph)
- 7SM
13:35
Overcast
34°F / 1°C 28°F / -2°C 81% 30.21 in
(1023 mb)
SSE 6.9 mph
(SSE 11 kph)
- 7SM
13:15
Overcast
34°F / 1°C 28°F / -2°C 81% 30.24 in
(1024 mb)
SSE 8.1 mph
(SSE 13 kph)
- 7SM
12:55
Overcast
32°F / 0°C 28°F / -2°C 87% 30.24 in
(1024 mb)
SSE 6.9 mph
(SSE 11 kph)
- 7SM
12:35
Overcast
32°F / 0°C 28°F / -2°C 87% 30.24 in
(1024 mb)
S 8.1 mph
(S 13 kph)
- 7SM
12:15
Overcast
32°F / 0°C 28°F / -2°C 87% 30.24 in
(1024 mb)
S 8.1 mph
(S 13 kph)
- 7SM
11:55
Overcast
32°F / 0°C 28°F / -2°C 87% 30.27 in
(1025 mb)
SSE 8.1 mph
(SSE 13 kph)
- 7SM
11:35
Overcast
32°F / 0°C 28°F / -2°C 87% 30.27 in
(1025 mb)
S 6.9 mph
(S 11 kph)
- 7SM
11:15
Overcast
32°F / 0°C 28°F / -2°C 87% 30.27 in
(1025 mb)
S 5.8 mph
(S 9 kph)
- 7SM
10:55
Overcast
32°F / 0°C 28°F / -2°C 87% 30.27 in
(1025 mb)
S 5.8 mph
(S 9 kph)
- 7SM
10:35
Overcast
32°F / 0°C 28°F / -2°C 87% 30.27 in
(1025 mb)
S 5.8 mph
(S 9 kph)
- 7SM
10:15
Overcast
32°F / 0°C 28°F / -2°C 87% 30.27 in
(1025 mb)
S 4.6 mph
(S 7 kph)
- 7SM
09:55
Overcast
Fog And Mist
30°F / -1°C 28°F / -2°C 93% 30.27 in
(1025 mb)
S 5.8 mph
(S 9 kph)
- 5SM
09:35
Overcast
Fog And Mist
30°F / -1°C 28°F / -2°C 93% 30.27 in
(1025 mb)
S 4.6 mph
(S 7 kph)
- 5SM
09:14
Overcast
Fog And Mist
30°F / -1°C 28°F / -2°C 93% 30.27 in
(1025 mb)
SSE 4.6 mph
(SSE 7 kph)
- 5SM
08:55
Overcast
Fog And Mist
30°F / -1°C 28°F / -2°C 93% 30.27 in
(1025 mb)
S 4.6 mph
(S 7 kph)
- 5SM
08:35
Overcast
Fog And Mist
30°F / -1°C 28°F / -2°C 93% 30.27 in
(1025 mb)
S 4.6 mph
(S 7 kph)
- 5SM
08:15
Overcast
Fog And Mist
30°F / -1°C 28°F / -2°C 93% 30.27 in
(1025 mb)
S 6.9 mph
(S 11 kph)
- 5SM
07:55
Overcast
30°F / -1°C 27°F / -3°C 86% 30.27 in
(1025 mb)
SSE 5.8 mph
(SSE 9 kph)
- 7SM
07:35
Overcast
28°F / -2°C 28°F / -2°C 100% 30.27 in
(1025 mb)
SSE 5.8 mph
(SSE 9 kph)
- 7SM
07:15
Overcast
28°F / -2°C 28°F / -2°C 100% 30.27 in
(1025 mb)
SSE 4.6 mph
(SSE 7 kph)
- 7SM
06:55
Overcast
28°F / -2°C 28°F / -2°C 100% 30.27 in
(1025 mb)
SSE 4.6 mph
(SSE 7 kph)
- 7SM
06:35
Overcast
28°F / -2°C 27°F / -3°C 93% 30.27 in
(1025 mb)
SSE 4.6 mph
(SSE 7 kph)
- 7SM
06:15
Overcast
28°F / -2°C 27°F / -3°C 93% 30.3 in
(1026 mb)
SSE 3.5 mph
(SSE 6 kph)
- 7SM
05:55
Overcast
28°F / -2°C 27°F / -3°C 93% 30.27 in
(1025 mb)
SSE 3.5 mph
(SSE 6 kph)
- 7SM
05:35
Overcast
28°F / -2°C 27°F / -3°C 93% 30.27 in
(1025 mb)
S 3.5 mph
(S 6 kph)
- 7SM
05:15
Overcast
28°F / -2°C 27°F / -3°C 93% 30.27 in
(1025 mb)
S 3.5 mph
(S 6 kph)
- 7SM
04:55
Overcast
28°F / -2°C 27°F / -3°C 93% 30.27 in
(1025 mb)
SSE 3.5 mph
(SSE 6 kph)
- 7SM
04:35
Overcast
28°F / -2°C 27°F / -3°C 93% 30.27 in
(1025 mb)
S 3.5 mph
(S 6 kph)
- 7SM
04:15
Overcast
28°F / -2°C 27°F / -3°C 93% 30.27 in
(1025 mb)
S 3.5 mph
(S 6 kph)
- 7SM
03:55
Overcast
28°F / -2°C 27°F / -3°C 93% 30.27 in
(1025 mb)
S 3.5 mph
(S 6 kph)
- 7SM
03:35
Overcast
28°F / -2°C 28°F / -2°C 100% 30.27 in
(1025 mb)
Calm - 7SM
03:15
Overcast
27°F / -3°C 27°F / -3°C 100% 30.27 in
(1025 mb)
Calm - 7SM
02:55
Overcast
27°F / -3°C 27°F / -3°C 100% 30.27 in
(1025 mb)
Calm - 7SM
02:35
Overcast
27°F / -3°C 27°F / -3°C 100% 30.27 in
(1025 mb)
Calm - 7SM
02:15
Overcast
25°F / -4°C 25°F / -4°C 100% 30.27 in
(1025 mb)
SSE 3.5 mph
(SSE 6 kph)
- 7SM
01:55
Overcast
23°F / -5°C 23°F / -5°C 100% 30.27 in
(1025 mb)
Calm - 7SM
01:35
Mostly Cloudy
23°F / -5°C 23°F / -5°C 100% 30.27 in
(1025 mb)
Calm - 7SM
01:15
Mostly Cloudy
23°F / -5°C 23°F / -5°C 100% 30.27 in
(1025 mb)
Calm - 7SM
00:55
Mostly Cloudy
23°F / -5°C 23°F / -5°C 100% 30.27 in
(1025 mb)
Calm - 7SM
00:35
Clear
23°F / -5°C 23°F / -5°C 100% 30.27 in
(1025 mb)
Calm - 7SM
00:15
Clear
23°F / -5°C 23°F / -5°C 100% 30.27 in
(1025 mb)
Calm - 7SM
Time Weather Temperature Dewpoint Humidity Pressure Winds Precip Visibility


Weather for websites

WeatherForYou.com, LLC is not responsible for any damages or problems caused by this service. Current weather conditions are obtained from the closest station including government and personal stations which may have varying degrees of accuracy. Weather forecasts are derived from the NOAA NDFD. Like all things, this site belongs to Jesus Christ... He just trusts me to maintain it. If you have any questions or comments email webmaster@weatherforyou.com

Copyright © 2014, WeatherForYou.com LLC. All rights reserved.